Location: Lafig�re
(44.4503°N, 4.0357°E)
Time: 16:30:54
(UTC+00:00)

Cosmos 1733 - Pass Details

Date: 24 September 2020
Orbit: 504 x 523 km, 82.5° (Epoch: 25 October)

Event Time Altitude Azimuth Distance (km) Brightness Sun altitude
Exits shadow 19:13:16 31° 154° (SSE) 926 4.1 -17.8°
Maximum altitude 19:14:47 52° 95° (E) 652 3.3 -18.1°
Drops below altitude 10° 19:18:31 10° 18° (NNE) 1,752 5.9 -18.7°
Sets 19:20:41 0° 14° (NNE) 2,640 6.9 -19.1°
